[[{"header":{"parameterUnit":"m.s-1","parameterCategory":1,"la1":30.2991,"la2":30.254,"lo1":-89.0895,"lo2":-89.0444,"dy":0.0017,"dx":0.0017,"nx":28,"ny":28,"refTime":"2025-09-14T03:00:00:Z","depth":0,"parameterNumber":2,"parameterNumberName":"U-component_of_WINDS"},"data":[0,0,0,0,0,0,0,0,0,0,0,0,0,0,0,0,0,0,0,0,0,0,0,0,0,0,0,0,0,0,0,0,0,0,0,0,0,0,0,0,0,0,0,0,0,0,0,0,0,0,0,0,0,0,0,0,0,0,2.1003,2.1003,0,2.1037,2.1037,2.1038,2.0984,2.0982,2.098,2.0978,2.1013,2.1015,2.1018,0,0,0,0,0,0,0,0,0,0,0,0,0,2.0889,2.0892,2.1003,2.1003,2.1004,2.1037,2.1038,2.1038,2.0984,2.0982,2.098,2.0978,2.1012,2.1015,2.1018,0,0,0,0,0,0,0,0,0,0,0,0,0,2.0933,2.0893,2.1003,2.0981,2.0979,2.1037,2.1038,2.1038,2.0985,2.0982,2.0979,2.0977,2.1011,2.1015,2.1019,2.1099,0,0,2.1031,2.1032,0,0,0,0,0,0,0,0,2.093,2.0937,2.0984,2.0983,2.0981,2.1003,2.101,2.1058,2.0985,2.0983,2.0978,2.0975,2.1012,2.1016,2.1028,2.1101,2.1102,2.1031,2.1034,2.1035,2.1036,0,0,0,0,0,0,0,2.0927,2.0935,2.1016,2.0985,2.0983,2.0969,2.0972,2.1019,2.1012,2.0983,2.0979,2.0984,2.1011,2.1024,2.1028,2.1103,2.1031,2.1035,2.1037,2.1039,2.124,2.1243,0,0,0,0,0,0,2.0927,2.0933,2.1015,2.1017,2.0948,2.0973,2.0977,2.0999,2.1012,2.1011,2.0986,2.0981,2.1019,2.1024,2.1029,2.1123,2.1035,2.1039,2.1041,2.1238,2.1241,2.1244,0,0,0,0,0,0,2.0925,2.0935,2.1014,2.0974,2.0983,2.0978,2.1004,2.1001,2.1015,2.1014,2.1013,2.1002,2.1017,2.1024,2.1082,2.1123,2.1041,2.1044,2.1234,2.1239,2.1243,2.1311,0,0,0,0,0,0,2.0922,2.0935,2.0966,2.0975,2.0986,2.1066,2.1006,2.1004,2.1022,2.1016,2.1028,2.1028,2.1015,2.1076,2.1086,2.1127,2.1047,2.123,2.1236,2.1241,2.1305,2.1317,2.1328,0,0,0,0,0,2.0918,2.0984,2.0967,2.0978,2.1024,2.1069,2.1075,2.1059,2.1026,2.1056,2.1056,2.1027,2.1117,2.1082,2.1093,2.1136,2.1227,2.1234,2.1241,2.13,2.1315,2.1328,0,0,0,0,0,0,2.0979,2.0985,2.0967,2.1038,2.1053,2.106,2.1098,2.1076,2.1101,2.1094,2.1073,2.1077,2.1138,2.1143,2.1104,2.1214,2.1167,2.1176,2.1208,2.1222,2.1234,2.123,2.1051,0,0,0,0,0,2.1001,2.1037,2.104,2.1102,2.1111,2.1103,2.1122,2.1109,2.1124,2.113,2.1134,2.1149,2.1181,2.1202,2.1231,2.1306,2.1307,2.1341,2.1352,2.1361,2.1369,2.1407,2.1422,2.1266,2.1266,2.1266,0,0,2.1046,2.1054,2.1078,2.1114,2.1125,2.1162,2.1109,2.1151,2.1178,2.1136,2.1191,2.1194,2.121,2.1276,2.1305,2.1282,2.1412,2.137,2.1377,2.138,2.1415,2.143,2.1443,2.1271,2.127,2.1269,0,0,2.1147,2.1157,2.1209,2.1221,2.1237,2.1231,2.1244,2.1254,2.1254,2.1308,2.1277,2.1309,2.1364,2.1376,2.139,2.1494,2.1468,2.1504,2.1563,2.1601,2.1613,2.1623,2.1659,2.1672,2.1512,2.1512,2.1513,0,2.1201,2.1256,2.1239,2.1282,2.1299,2.1263,2.1315,2.1326,2.1352,2.1363,2.1337,2.1404,2.1413,2.148,2.1506,2.1518,2.1531,2.1502,2.1613,2.1623,2.1633,2.1666,2.168,2.1517,2.1516,2.1516,2.1515,0,2.1321,2.136,2.14,2.1424,2.1445,2.1493,2.1482,2.1505,2.149,2.1487,2.1541,2.155,2.1579,2.1595,2.1581,2.166,2.1645,2.1616,2.1568,2.1652,2.1683,2.1696,2.1522,2.1521,2.152,2.1519,0,0,2.1461,2.1475,2.149,2.15,2.1515,2.1544,2.159,2.1618,2.1638,2.1656,2.1693,2.174,2.1713,2.1728,2.1715,2.1748,2.1828,2.1715,2.1715,2.1734,2.1914,2.1934,2.195,2.1811,2.1814,2.1816,2.1912,0,2.1561,2.1639,2.1624,2.17,2.1735,2.1701,2.174,2.1753,2.1751,2.178,2.1777,2.181,2.1773,2.1782,2.1813,2.1812,2.1863,2.1805,2.1844,2.1846,2.184,2.1966,2.1988,2.2078,2.1924,2.1926,2.1928,0,2.1687,2.1709,2.1789,2.1797,2.1811,2.1847,2.1871,2.1899,2.1912,2.1909,2.1925,2.1905,2.1949,2.1902,2.1962,2.1922,2.1937,2.1939,2.1942,2.1944,2.1891,2.197,2.2107,2.212,2.1947,2.1946,2.1944,0,2.1779,2.183,2.1883,2.1893,2.1904,2.193,2.1936,2.1946,2.1964,2.1985,2.1996,2.2023,2.2037,2.2057,2.2044,2.2011,2.2105,2.2057,2.2102,2.2103,2.2123,2.2121,2.2263,2.2135,2.2135,2.2135,2.2135,0,2.1891,2.1941,2.1925,2.1957,2.2011,2.1994,2.2047,2.2049,2.2059,2.2091,2.2063,2.2094,2.2076,2.2104,2.2095,2.2144,2.2152,2.2149,2.2145,2.215,2.215,2.2159,2.2152,2.2138,2.2138,2.2137,2.2136,0,2.2003,2.1994,2.205,2.2056,2.2058,2.2098,2.2102,2.2132,2.2128,2.2169,2.2177,2.217,2.2203,2.2192,2.2227,2.2221,2.2283,2.2273,2.2279,2.2275,2.232,2.2315,2.247,2.2489,2.2352,2.2353,2.2354,0,2.2074,2.2111,2.212,2.214,2.2147,2.2179,2.2196,2.218,2.2199,2.2217,2.2245,2.2274,2.2297,2.235,2.2348,2.2374,2.2363,2.2415,2.2367,2.237,2.2361,2.2359,2.2361,2.2425,2.2426,2.2428,2.2429,0,2.22,2.2194,2.222,2.2245,2.2267,2.2286,2.2302,2.2319,2.2304,2.2327,2.2359,2.2377,2.2412,2.2441,2.2465,2.247,2.2446,2.2444,2.2456,2.246,2.2461,2.2459,2.2303,2.244,2.2439,2.2438,2.2438,2.2437,2.2293,2.2323,2.2334,2.2364,2.2375,2.239,2.2418,2.2417,2.2444,2.2471,2.246,2.2497,2.2508,2.2537,2.2545,2.2573,2.2553,2.257,2.2574,2.2578,2.2582,2.2458,2.2577,2.2577,2.2577,2.2576,2.2576,0,2.2416,2.2421,2.2449,2.2472,2.2495,2.2472,2.2488,2.2509,2.2542,2.2554,2.2577,2.2613,2.2641,2.2641,2.2667,2.2689,2.2679,2.2697,2.2694,2.2695,2.26,2.2587,2.2704,2.2704,2.2704,2.2704,2.2704,2.2704,2.2483,2.2533,2.2528,2.2582,2.2587,2.2622,2.2633,2.2647,2.2657,2.2699,2.2722,2.2721,2.2728,2.2754,2.2778,2.2778,2.2787,2.2809,2.2804,2.2715,2.2702,2.269,2.2677,2.2811,2.2812,2.2896,2.2897,2.2897]},{"header":{"parameterUnit":"m.s-1","parameterCategory":1,"la1":30.2991,"la2":30.254,"lo1":-89.0895,"lo2":-89.0444,"dy":0.0017,"dx":0.0017,"nx":28,"ny":28,"refTime":"2025-09-14T03:00:00:Z","depth":0,"parameterNumber":3,"parameterNumberName":"V-component_of_WINDS"},"data":[0,0,0,0,0,0,0,0,0,0,0,0,0,0,0,0,0,0,0,0,0,0,0,0,0,0,0,0,0,0,0,0,0,0,0,0,0,0,0,0,0,0,0,0,0,0,0,0,0,0,0,0,0,0,0,0,0,0,-0.83,-0.83,0,-0.8316,-0.8316,-0.8316,-0.8346,-0.8347,-0.8347,-0.8348,-0.8364,-0.8364,-0.8363,0,0,0,0,0,0,0,0,0,0,0,0,0,-0.8295,-0.8295,-0.8299,-0.83,-0.83,-0.8315,-0.8316,-0.8316,-0.8346,-0.8347,-0.8348,-0.8348,-0.8364,-0.8364,-0.8363,0,0,0,0,0,0,0,0,0,0,0,0,0,-0.8303,-0.8295,-0.8299,-0.8317,-0.8319,-0.8315,-0.8316,-0.8316,-0.8346,-0.8347,-0.8348,-0.8349,-0.8364,-0.8364,-0.8363,-0.8344,0,0,-0.8363,-0.8363,0,0,0,0,0,0,0,0,-0.8302,-0.8303,-0.8314,-0.8316,-0.8318,-0.833,-0.832,-0.8325,-0.8346,-0.8336,-0.8348,-0.8349,-0.8352,-0.8353,-0.8354,-0.8345,-0.8346,-0.8363,-0.8363,-0.8363,-0.8363,0,0,0,0,0,0,0,-0.8302,-0.8302,-0.8306,-0.8314,-0.8316,-0.8324,-0.8326,-0.8321,-0.8338,-0.8337,-0.8339,-0.834,-0.8353,-0.8354,-0.8354,-0.8346,-0.8363,-0.8363,-0.8362,-0.8362,-0.8324,-0.8323,0,0,0,0,0,0,-0.8299,-0.8302,-0.8305,-0.8306,-0.8312,-0.8323,-0.8326,-0.8325,-0.8339,-0.8341,-0.834,-0.8342,-0.8354,-0.8354,-0.8355,-0.8334,-0.8363,-0.8362,-0.8362,-0.8325,-0.8324,-0.8323,0,0,0,0,0,0,-0.8299,-0.8299,-0.8305,-0.8305,-0.8306,-0.8322,-0.8321,-0.8325,-0.8326,-0.8341,-0.8344,-0.8337,-0.8354,-0.8355,-0.8347,-0.8335,-0.8362,-0.8362,-0.8326,-0.8325,-0.8323,-0.8292,0,0,0,0,0,0,-0.8298,-0.8299,-0.8291,-0.8304,-0.8306,-0.8296,-0.8321,-0.8324,-0.8325,-0.8328,-0.834,-0.8342,-0.8355,-0.8347,-0.8347,-0.8335,-0.8362,-0.8327,-0.8325,-0.8324,-0.8294,-0.8289,-0.8286,0,0,0,0,0,-0.8298,-0.8281,-0.8291,-0.8291,-0.8297,-0.8296,-0.8296,-0.8312,-0.8324,-0.8317,-0.8327,-0.8342,-0.8337,-0.8346,-0.8346,-0.8334,-0.8328,-0.8326,-0.8324,-0.8296,-0.829,-0.8286,0,0,0,0,0,0,-0.8266,-0.8283,-0.8294,-0.8281,-0.8287,-0.8301,-0.8292,-0.8305,-0.8307,-0.831,-0.8329,-0.8331,-0.8321,-0.8327,-0.8337,-0.8317,-0.8335,-0.8333,-0.8313,-0.8308,-0.8304,-0.8303,-0.8362,0,0,0,0,0,-0.8257,-0.8254,-0.827,-0.8257,-0.8259,-0.8275,-0.8275,-0.8287,-0.8293,-0.8296,-0.8305,-0.8311,-0.8311,-0.831,-0.831,-0.8295,-0.8299,-0.8287,-0.8283,-0.828,-0.8277,-0.8271,-0.8266,-0.8316,-0.8316,-0.8316,0,0,-0.8239,-0.8248,-0.8245,-0.8251,-0.8256,-0.8253,-0.8277,-0.8272,-0.827,-0.8295,-0.8288,-0.8295,-0.8303,-0.8292,-0.8287,-0.8296,-0.8264,-0.8277,-0.8274,-0.8274,-0.8268,-0.8263,-0.8259,-0.8315,-0.8315,-0.8315,0,0,-0.8205,-0.8211,-0.8202,-0.8207,-0.8216,-0.8227,-0.8225,-0.8237,-0.8243,-0.8237,-0.8255,-0.8253,-0.8252,-0.8258,-0.826,-0.8229,-0.8243,-0.8229,-0.8207,-0.8201,-0.8197,-0.8193,-0.8182,-0.8178,-0.8227,-0.8227,-0.8227,0,-0.8181,-0.8177,-0.8195,-0.819,-0.8192,-0.8214,-0.8205,-0.821,-0.8218,-0.8219,-0.8229,-0.8229,-0.8236,-0.8227,-0.8219,-0.8221,-0.8219,-0.8227,-0.8196,-0.8192,-0.819,-0.818,-0.8176,-0.8225,-0.8225,-0.8225,-0.8226,0,-0.8148,-0.8145,-0.8136,-0.8144,-0.8145,-0.8138,-0.8155,-0.8154,-0.8166,-0.8176,-0.817,-0.8179,-0.8182,-0.8181,-0.8192,-0.8173,-0.8179,-0.8192,-0.821,-0.8183,-0.8174,-0.817,-0.8223,-0.8223,-0.8224,-0.8224,0,0,-0.8092,-0.8111,-0.8108,-0.8112,-0.8124,-0.8122,-0.8117,-0.812,-0.8119,-0.8125,-0.812,-0.812,-0.8133,-0.8136,-0.8148,-0.8142,-0.8118,-0.8156,-0.8157,-0.8149,-0.8099,-0.8088,-0.8083,-0.8128,-0.8127,-0.8127,-0.8098,0,-0.806,-0.8051,-0.8067,-0.8054,-0.8052,-0.8075,-0.807,-0.8077,-0.8087,-0.8087,-0.8097,-0.8097,-0.8114,-0.8116,-0.8111,-0.8122,-0.8108,-0.8124,-0.8124,-0.8124,-0.8121,-0.8079,-0.8067,-0.804,-0.8095,-0.8094,-0.8094,0,-0.8021,-0.8025,-0.8012,-0.8026,-0.8026,-0.8021,-0.8027,-0.8026,-0.8035,-0.8043,-0.8047,-0.8062,-0.8057,-0.8075,-0.807,-0.8081,-0.8082,-0.8087,-0.8087,-0.8087,-0.8106,-0.8078,-0.8032,-0.8027,-0.8088,-0.8089,-0.8089,0,-0.7982,-0.7984,-0.7977,-0.798,-0.7996,-0.7993,-0.7999,-0.8009,-0.8011,-0.8016,-0.8017,-0.8021,-0.8023,-0.8026,-0.8042,-0.8054,-0.8035,-0.8055,-0.8042,-0.8041,-0.8036,-0.8036,-0.7989,-0.8037,-0.8037,-0.8037,-0.8037,0,-0.7944,-0.7935,-0.796,-0.7955,-0.7946,-0.7966,-0.7957,-0.7965,-0.7974,-0.7972,-0.7992,-0.799,-0.8011,-0.8012,-0.8024,-0.8018,-0.8019,-0.8025,-0.8029,-0.8023,-0.8022,-0.8024,-0.8026,-0.8036,-0.8037,-0.8037,-0.8037,0,-0.7898,-0.7914,-0.7908,-0.7924,-0.7928,-0.7921,-0.7935,-0.7932,-0.7944,-0.7941,-0.7941,-0.7959,-0.7961,-0.7977,-0.7982,-0.7991,-0.798,-0.7987,-0.7977,-0.7979,-0.7965,-0.7966,-0.7917,-0.7912,-0.7963,-0.7963,-0.7962,0,-0.7873,-0.7867,-0.7883,-0.7883,-0.7889,-0.7889,-0.7891,-0.791,-0.7912,-0.7922,-0.7918,-0.7921,-0.7925,-0.7926,-0.794,-0.7944,-0.7951,-0.7934,-0.7952,-0.7947,-0.7951,-0.7951,-0.7951,-0.793,-0.7929,-0.7929,-0.7928,0,-0.7827,-0.7835,-0.7837,-0.7843,-0.7845,-0.785,-0.7856,-0.7855,-0.7876,-0.7877,-0.7879,-0.7882,-0.7887,-0.7891,-0.7897,-0.7905,-0.792,-0.7923,-0.792,-0.7914,-0.7908,-0.7912,-0.7966,-0.7923,-0.7924,-0.7924,-0.7924,-0.7925,-0.779,-0.7786,-0.7797,-0.7799,-0.7806,-0.7812,-0.781,-0.7822,-0.7824,-0.783,-0.7841,-0.7842,-0.7852,-0.7863,-0.787,-0.7871,-0.788,-0.7875,-0.7874,-0.7873,-0.787,-0.7909,-0.7872,-0.7872,-0.7872,-0.7872,-0.7872,0,-0.7745,-0.7753,-0.7755,-0.7764,-0.7765,-0.7781,-0.7789,-0.7789,-0.7789,-0.7798,-0.7801,-0.7804,-0.7808,-0.7822,-0.7828,-0.7826,-0.7833,-0.7826,-0.7826,-0.7828,-0.7862,-0.7864,-0.782,-0.782,-0.782,-0.782,-0.782,-0.782,-0.7721,-0.7716,-0.7726,-0.7724,-0.7733,-0.7733,-0.7737,-0.7742,-0.7749,-0.7752,-0.7755,-0.7764,-0.7776,-0.7782,-0.7787,-0.7791,-0.7792,-0.7783,-0.779,-0.7821,-0.7826,-0.783,-0.7832,-0.7783,-0.7783,-0.7756,-0.7756,-0.7755]}]]